Hlavní strana
METAR-TAF:

METAR-TAF

Letiště :

New River Valley Airport

Dublin, Virginie, Spojené státy americké

zeměpisná šířka: 37-08N, zeměpisná délka: 080-41W, výška: 642 m

Aktuální stav počasí

Zpráva byla vytvořena před 21 minutami, v 09:15 UTC
Bezvětří
Teplota 19°C
Vlhkost vzduchu 100%
Tlak 1021 hPa
Viditelnost: 11.3 km
Polojasno ve výšce 500 ft

METAR: KPSK 070915Z AUTO 00000KT 7SM SCT005 19/19 A3014 RMK AO2 T01910191

Čas: 05:36 (09:36 UTC)


TAF: chybějící

Stav a předpovědi počasí z více než 4 000 letišť (zprávy METAR a TAF).

Červené a žluté tečky na mapě představují dostupné meteorologické stanice.

Když kurzor umístíte na tečku, zobrazí se název stanice.

Pak kliknutím zobrazíte stav a předpověď počasí.

Chcete-li změnit mapu, kliknutím na zelené tlačítko se znaménkem +mapu přiblížíte, kliknutím na zelené tlačítko se znaménkem – mapu oddálíte a kliknutím na zelené šipky přejdete na sousední mapy.


METAR-TAF: